Change the Weather History Date:

Friday, December 7, 2012

  Actual Average Record
Temperature  
Mean Temperature 28 °F -  
Max Temperature 46 °F 20 °F 46 °F (2012)
Min Temperature 10 °F 2 °F -9 °F (2014)
Degree Days  
Heating Degree Days 37    
Moisture  
Dew Point 14 °F    
Average Humidity 79    
Maximum Humidity 93    
Minimum Humidity 23    
Precipitation  
Precipitation 0.00 in 0.13 in - ()
Sea Level Pressure  
Sea Level Pressure 30.10 in    
Wind  
Wind Speed 5 mph ()    
Max Wind Speed 12 mph    
Max Gust Speed -    
Visibility 15.3 miles    
Events      
Averages and records for this station are not official NWS values.
T = Trace of Precipitation, MM = Missing Value Source: Averaged Metar Reports

Daily Weather History Graph

Daily Weather History Graph

Search for Another Location

Airport or City:

Trip Planner

Search our weather history database for the weather conditions in past years. The results will help you decide how hot, cold, wet, or windy it might be!

Date:

Astronomy

Dec. 07, 2012 Rise Set
Actual Time 7:10 AM EST 3:22 PM EST
Civil Twilight 6:32 AM EST 4:00 PM EST
Nautical Twilight 5:51 AM EST 4:42 PM EST
Astronomical Twilight 5:11 AM EST 5:21 PM EST
Moon No Moon Rise 11:49 AM EST (12/7)
Length of Visible Light 9h 28m
Length of Day
8h 11m
Last Quarter, 39% of the Moon is Illuminated
Dec 7
Last Quarter
Dec 13
New
Dec 20
First Quarter
Dec 28
Full
Jan 4
Last Quarter

Hourly Weather History & Observations

Time (EST) Temp. Windchill Dew Point Humidity Pressure Visibility Wind Dir Wind Speed Gust Speed Precip Events Conditions
12:00 AM 12.2 °F 1.7 °F 5.0 °F 73% 30.23 in 15.0 mi North 6.9 mph - N/A   Scattered Clouds
1:00 AM 10.4 °F -1.5 °F 5.0 °F 79% 30.22 in 15.0 mi NE 8.1 mph - N/A   Mostly Cloudy
2:00 AM 10.4 °F 2.2 °F 5.0 °F 79% 30.24 in 15.0 mi North 4.6 mph - N/A   Overcast
3:00 AM 10.4 °F 2.2 °F 5.0 °F 79% 30.21 in 15.0 mi NE 4.6 mph - N/A   Overcast
4:00 AM 10.4 °F -0.4 °F 6.8 °F 85% 30.22 in 15.0 mi NNE 6.9 mph - N/A   Mostly Cloudy
5:00 AM 10.4 °F -0.4 °F 5.0 °F 79% 30.19 in 15.0 mi NE 6.9 mph - N/A   Mostly Cloudy
6:00 AM 10.4 °F -1.5 °F 5.0 °F 79% 30.19 in 15.0 mi NNE 8.1 mph - N/A   Mostly Cloudy
7:00 AM 10.4 °F 2.2 °F 5.0 °F 79% 30.18 in 30.0 mi ENE 4.6 mph - N/A   Overcast
8:00 AM 12.2 °F - 6.8 °F 79% 30.18 in 30.0 mi Calm Calm - N/A   Overcast
9:00 AM 15.8 °F 5.1 °F 8.6 °F 73% 30.15 in 30.0 mi NE 8.1 mph - N/A   Overcast
10:00 AM 46.4 °F 42.9 °F 10.4 °F 23% 30.13 in 30.0 mi ENE 6.9 mph - N/A   Overcast
11:00 AM 19.4 °F 12.8 °F 14.0 °F 80% 30.09 in 30.0 mi ENE 4.6 mph - N/A   Overcast
12:00 PM 24.8 °F 17.9 °F 17.6 °F 74% 30.05 in 30.0 mi NE 5.8 mph - N/A   Overcast
1:00 PM 26.6 °F 16.2 °F 21.2 °F 80% 30.05 in 30.0 mi East 11.5 mph - N/A   Mostly Cloudy
2:00 PM 26.6 °F 16.2 °F 21.2 °F 80% 30.02 in 30.0 mi East 11.5 mph - N/A   Mostly Cloudy
3:00 PM 26.6 °F 20.0 °F 21.2 °F 80% 30.03 in 20.0 mi NE 5.8 mph - N/A   Overcast
4:00 PM 24.8 °F 16.9 °F 21.2 °F 86% 30.02 in 15.0 mi NNE 6.9 mph - N/A   Mostly Cloudy
5:00 PM 24.8 °F 16.9 °F 21.2 °F 86% 30.01 in 15.0 mi NE 6.9 mph - N/A   Mostly Cloudy
6:00 PM 24.8 °F 16.9 °F 21.2 °F 86% 30.00 in 15.0 mi ENE 6.9 mph - N/A   Mostly Cloudy
7:00 PM 23.0 °F 14.7 °F 21.2 °F 93% 30.01 in 15.0 mi NE 6.9 mph - N/A   Mostly Cloudy
8:00 PM 24.8 °F 20.5 °F 21.2 °F 86% 30.00 in 15.0 mi NE 3.5 mph - N/A   Overcast
9:00 PM 24.8 °F - 21.2 °F 86% 30.01 in 30.0 mi Calm Calm - N/A   Overcast
10:00 PM 24.8 °F - 21.2 °F 86% 29.99 in 15.0 mi Calm Calm - N/A   Overcast
11:00 PM 24.8 °F - 21.2 °F 86% 29.99 in 15.0 mi Calm Calm - N/A   Overcast